Oxford, CT

12:38 AM EDT on May 27, 2018 (GMT -0400)
Waterbury-Oxford

Weather History for KOXC - August, 2014

Change the Weather History Date:

Wednesday, August 6, 2014

  Actual Average Record
Temperature  
Mean Temperature 70 °F -  
Max Temperature 77 °F 77 °F 91 °F (2001)
Min Temperature 62 °F 59 °F 51 °F (2013)
Cooling Degree Days 4    
Growing Degree Days 20 (Base 50)    
Moisture  
Dew Point 59 °F    
Average Humidity 71    
Maximum Humidity 83    
Minimum Humidity 50    
Precipitation  
Precipitation 0.00 in - - ()
Sea Level Pressure  
Sea Level Pressure 29.91 in    
Wind  
Wind Speed 5 mph (NNW)    
Max Wind Speed 12 mph    
Max Gust Speed 17 mph    
Visibility 10 miles    
Events      
Averages and records for this station are not official NWS values.
T = Trace of Precipitation, MM = Missing Value Source: NWS Daily Summary

Daily Weather History Graph

Daily Weather History Graph

Search for Another Location

Airport or City:

Astronomy

Aug. 06, 2014 Rise Set
Actual Time 5:52 AM EDT 8:03 PM EDT
Civil Twilight 5:21 AM EDT 8:34 PM EDT
Nautical Twilight 4:43 AM EDT 9:12 PM EDT
Astronomical Twilight 4:02 AM EDT 9:53 PM EDT
Moon 4:18 PM EDT (8/6) 1:24 AM EDT (8/6)
Length of Visible Light 15h 12m
Length of Day
14h 11m
Waxing Gibbous, 77% of the Moon is Illuminated
Aug 6
Waxing Gibbous
Aug 10
Full
Aug 17
Last Quarter
Aug 25
New
Sep 2
First Quarter

Hourly Weather History & Observations

Time (EDT) Temp. Dew Point Humidity Pressure Visibility Wind Dir Wind Speed Gust Speed Precip Events Conditions
6:45 AM 62.6 °F 57.2 °F 82% 29.91 in 9.0 mi Calm Calm - N/A   Scattered Clouds
7:45 AM 64.4 °F 57.2 °F 77% 29.92 in 9.0 mi NNW 4.6 mph - N/A   Scattered Clouds
8:45 AM 64.4 °F 57.2 °F 77% 29.93 in 9.0 mi NNW 9.2 mph - N/A   Scattered Clouds
9:45 AM 69.8 °F 60.8 °F 73% 29.92 in 10.0 mi NNW 9.2 mph - N/A   Scattered Clouds
10:45 AM 71.6 °F 60.8 °F 69% 29.92 in 10.0 mi NNW 5.8 mph - N/A   Scattered Clouds
11:45 AM 73.4 °F 60.8 °F 65% 29.91 in 10.0 mi North 11.5 mph 17.3 mph N/A   Mostly Cloudy
12:45 PM 75.2 °F 60.8 °F 61% 29.90 in 10.0 mi NW 6.9 mph - N/A   Mostly Cloudy
2:45 PM 77.0 °F 59.0 °F 54% 29.89 in 10.0 mi NNW 9.2 mph - N/A   Scattered Clouds
3:45 PM 77.0 °F 60.8 °F 57% 29.88 in 10.0 mi NW 8.1 mph 16.1 mph N/A   Scattered Clouds
4:52 PM 77.0 °F 57.2 °F 50% 29.88 in 10.0 mi NW 8.1 mph - N/A   Mostly Cloudy
5:52 PM 75.2 °F 59.0 °F 57% 29.88 in 10.0 mi North 10.4 mph - N/A   Mostly Cloudy
7:52 PM 69.8 °F 59.0 °F 68% 29.90 in 10.0 mi North - - N/A   Mostly Cloudy
8:52 PM 68.0 °F 60.8 °F 78% 29.91 in 10.0 mi North - - N/A   Mostly Cloudy
9:15 PM 68.0 °F 60.8 °F 78% 29.91 in 10.0 mi NNW 3.5 mph - N/A   Overcast
9:35 PM 68.0 °F 60.8 °F 78% 29.92 in 10.0 mi NNW 3.5 mph - N/A   Overcast
9:55 PM 68.0 °F 60.8 °F 78% 29.93 in 10.0 mi NNW 3.5 mph - N/A   Overcast
10:15 PM 68.0 °F 60.8 °F 78% 29.93 in 10.0 mi NNW 3.5 mph - N/A   Mostly Cloudy
10:35 PM 66.2 °F 57.2 °F 73% 29.92 in 10.0 mi North 4.6 mph - N/A   Partly Cloudy
10:55 PM 64.4 °F 59.0 °F 83% 29.92 in 10.0 mi NNW 3.5 mph - N/A   Clear
11:15 PM 64.4 °F 59.0 °F 83% 29.92 in 10.0 mi NW 4.6 mph - N/A   Clear
11:35 PM 66.2 °F 57.2 °F 73% 29.92 in 10.0 mi NNW 4.6 mph - N/A   Clear